Change the Weather History Date:

Thursday, September 8, 2011

  Actual Average Record
Temperature  
Mean Temperature 66 °F -  
Max Temperature 75 °F 73 °F 93 °F (1931)
Min Temperature 57 °F 54 °F 37 °F (1917)
Cooling Degree Days 1    
Growing Degree Days 16 (Base 50)    
Moisture  
Dew Point 56 °F    
Average Humidity 75    
Maximum Humidity 88    
Minimum Humidity 47    
Precipitation  
Precipitation 0.00 in - - ()
Sea Level Pressure  
Sea Level Pressure 30.17 in    
Wind  
Wind Speed 6 mph (NNE)    
Max Wind Speed 17 mph    
Max Gust Speed -    
Visibility 10 miles    
Events      
Averages and records for this station are not official NWS values.
T = Trace of Precipitation, MM = Missing Value Source: NWS Daily Summary

Daily Weather History Graph

Daily Weather History Graph

Search for Another Location

Airport or City:

Trip Planner

Search our weather history database for the weather conditions in past years. The results will help you decide how hot, cold, wet, or windy it might be!

Date:

Astronomy

Sep. 08, 2011 Rise Set
Actual Time 6:19 AM CDT 7:14 PM CDT
Civil Twilight 5:50 AM CDT 7:43 PM CDT
Nautical Twilight 5:14 AM CDT 8:19 PM CDT
Astronomical Twilight 4:37 AM CDT 8:56 PM CDT
Moon 5:14 PM CDT (9/8) 2:29 AM CDT (9/8)
Length of Visible Light 13h 53m
Length of Day
12h 54m
Waxing Gibbous, 87% of the Moon is Illuminated
Sep 8
Waxing Gibbous
Sep 12
Full
Sep 20
Last Quarter
Sep 27
New
Oct 3
First Quarter

Hourly Weather History & Observations

Time (CDT) Temp. Dew Point Humidity Pressure Visibility Wind Dir Wind Speed Gust Speed Precip Events Conditions
12:15 AM - - N/A% 30.21 in 10.0 mi Calm Calm - N/A   Clear
12:35 AM - - N/A% 30.21 in 10.0 mi Calm Calm - N/A   Clear
12:55 AM - - N/A% 30.20 in 10.0 mi NNW 3.5 mph - N/A   Clear
1:15 AM - - N/A% 30.20 in 10.0 mi NNW 4.6 mph - N/A   Clear
1:35 AM - - N/A% 30.20 in 10.0 mi NNW 3.5 mph - N/A   Clear
1:55 AM - - N/A% 30.19 in 10.0 mi NNW 4.6 mph - N/A   Clear
2:15 AM - - N/A% 30.20 in 10.0 mi North 5.8 mph - N/A   Clear
2:35 AM - - N/A% 30.19 in 10.0 mi North 6.9 mph - N/A   Clear
2:55 AM - - N/A% 30.19 in 10.0 mi North 6.9 mph - N/A   Clear
3:35 AM - - N/A% 30.19 in 10.0 mi North 5.8 mph - N/A   Clear
3:55 AM - - N/A% 30.19 in 10.0 mi North 4.6 mph - N/A   Clear
4:15 AM - - N/A% 30.19 in 10.0 mi North 4.6 mph - N/A   Clear
4:35 AM - - N/A% 30.19 in 10.0 mi North 5.8 mph - N/A   Clear
4:55 AM - - N/A% 30.19 in 10.0 mi North 5.8 mph - N/A   Clear
5:15 AM 57.2 °F 53.6 °F 88% 30.20 in 10.0 mi North 4.6 mph - N/A   Clear
5:35 AM - - N/A% 30.21 in 10.0 mi North 6.9 mph - N/A   Clear
5:55 AM 59.0 °F 55.4 °F 88% 30.22 in 10.0 mi North 5.8 mph - N/A   Clear
6:35 AM 59.0 °F 55.4 °F 88% 30.22 in 10.0 mi North 8.1 mph - N/A   Clear
6:55 AM 59.0 °F 55.4 °F 88% 30.22 in 10.0 mi North 6.9 mph - N/A   Clear
7:15 AM 60.8 °F 55.4 °F 82% 30.23 in 10.0 mi North 6.9 mph - N/A   Clear
7:35 AM 60.8 °F 57.2 °F 88% 30.23 in 10.0 mi North 8.1 mph - N/A   Clear
7:55 AM 62.6 °F 57.2 °F 82% 30.22 in 10.0 mi North 11.5 mph - N/A   Clear
8:15 AM 62.6 °F 57.2 °F 82% 30.22 in 10.0 mi North 10.4 mph - N/A   Clear
8:35 AM 62.6 °F 57.2 °F 82% 30.22 in 10.0 mi North 9.2 mph - N/A   Clear
8:55 AM 64.4 °F 57.2 °F 77% 30.21 in 10.0 mi North 9.2 mph - N/A   Clear
9:35 AM 64.4 °F 59.0 °F 83% 30.22 in 10.0 mi North 9.2 mph - N/A   Clear
9:55 AM 66.2 °F 59.0 °F 78% 30.22 in 10.0 mi North 10.4 mph - N/A   Clear
10:35 AM 68.0 °F 59.0 °F 73% 30.23 in 10.0 mi North 11.5 mph - N/A   Clear
10:55 AM - - N/A% 30.22 in 10.0 mi North 16.1 mph - N/A   Clear
11:15 AM - - N/A% 30.22 in 10.0 mi North 17.3 mph - N/A   Clear
11:35 AM - - N/A% 30.22 in 10.0 mi North 15.0 mph - N/A   Clear
12:35 PM - - N/A% 30.20 in 10.0 mi North 13.8 mph - N/A   Clear
12:55 PM - - N/A% 30.20 in 10.0 mi North 13.8 mph - N/A   Partly Cloudy
1:15 PM - - N/A% 30.20 in 10.0 mi North 12.7 mph - N/A   Partly Cloudy
1:35 PM - - N/A% 30.19 in 10.0 mi North 16.1 mph - N/A   Clear
1:55 PM - - N/A% 30.18 in 10.0 mi North 15.0 mph - N/A   Partly Cloudy
2:15 PM - - N/A% 30.17 in 10.0 mi North 15.0 mph - N/A   Clear
2:35 PM - - N/A% 30.16 in 10.0 mi North 15.0 mph - N/A   Clear
2:55 PM - - N/A% 30.15 in 10.0 mi North 12.7 mph - N/A   Clear
3:15 PM - - N/A% 30.14 in 10.0 mi North 9.2 mph - N/A   Clear
3:35 PM - - N/A% 30.12 in 10.0 mi East 4.6 mph - N/A   Clear
3:55 PM - - N/A% 30.14 in 10.0 mi East 9.2 mph - N/A   Clear
4:15 PM - - N/A% 30.14 in 10.0 mi East 9.2 mph - N/A   Clear
4:35 PM - - N/A% 30.14 in 10.0 mi East 8.1 mph - N/A   Clear
4:55 PM 75.2 °F 53.6 °F 47% 30.14 in 10.0 mi East 5.8 mph - N/A   Clear
5:15 PM 73.4 °F 53.6 °F 50% 30.13 in 10.0 mi East 6.9 mph - N/A   Clear
5:35 PM 73.4 °F 53.6 °F 50% 30.13 in 10.0 mi ENE 5.8 mph - N/A   Clear
5:55 PM 73.4 °F 53.6 °F 50% 30.12 in 10.0 mi East 5.8 mph - N/A   Clear
6:15 PM - - N/A% 30.11 in 10.0 mi ENE 3.5 mph - N/A   Clear
6:35 PM - - N/A% 30.11 in 10.0 mi ENE 4.6 mph - N/A   Clear
6:55 PM - - N/A% 30.10 in 10.0 mi Calm Calm - N/A   Clear
7:15 PM - - N/A% 30.09 in 10.0 mi Calm Calm - N/A   Clear
7:35 PM 66.2 °F 55.4 °F 68% 30.09 in 10.0 mi Calm Calm - N/A   Clear
7:55 PM - - N/A% 30.08 in 10.0 mi Calm Calm - N/A   Clear
8:15 PM - - N/A% 30.08 in 10.0 mi NE 3.5 mph - N/A   Clear
8:35 PM - - N/A% 30.08 in 10.0 mi Calm Calm - N/A   Clear
8:55 PM - - N/A% 30.08 in 10.0 mi Calm Calm - N/A   Clear
9:15 PM - - N/A% 30.08 in 10.0 mi Calm Calm - N/A   Clear
9:35 PM - - N/A% 30.07 in 10.0 mi Calm Calm - N/A   Clear
9:55 PM - - N/A% 30.07 in 10.0 mi Calm Calm - N/A   Clear
10:15 PM - - N/A% 30.07 in 10.0 mi Calm Calm - N/A   Clear
10:35 PM - - N/A% 30.07 in 10.0 mi Calm Calm - N/A   Clear
10:55 PM - - N/A% 30.07 in 10.0 mi Calm Calm - N/A   Clear
11:15 PM - - N/A% 30.06 in 10.0 mi Calm Calm - N/A   Clear
11:35 PM - - N/A% 30.06 in 10.0 mi Calm Calm - N/A   Clear
11:55 PM - - N/A% 30.07 in 10.0 mi NNW 5.8 mph - N/A   Clear